• In India
  • List of Countries
  • For 7 days
  • Water Temperature
  • Satellite Maps
  • Weather Map
  • Weather Widgets
  • user-avatar
    Login

    Hourly Weather Adelaide

    Today, 12 December, Tuesday

    Time Temperature Precipitation Wind Pressure Humidity
    00:00 +19°C° 0 mm 3 mps 759 mmHg 60%
    01:00 +19°C° 0 mm 3 mps 758 mmHg 62%
    02:00 +18°C° 0 mm 2 mps 758 mmHg 64%
    03:00 +18°C° 0 mm 2 mps 757 mmHg 67%
    04:00 +19°C° 0 mm 2 mps 758 mmHg 63%
    05:00 +20°C° 0 mm 3 mps 758 mmHg 59%
    06:00 +21°C° 0 mm 3 mps 758 mmHg 55%
    07:00 +25°C° 0 mm 3 mps 757 mmHg 45%
    08:00 +28°C° 0 mm 3 mps 757 mmHg 35%
    09:00 +33°C° 0 mm 3 mps 757 mmHg 24%
    10:00 +34°C° 0 mm 3 mps 757 mmHg 22%
    11:00 +36°C° 0 mm 3 mps 756 mmHg 20%
    12:00 +37°C° 0 mm 2 mps 756 mmHg 18%
    13:00 +37°C° 0 mm 2 mps 755 mmHg 17%
    14:00 +38°C° 0 mm 2 mps 754 mmHg 16%
    15:00 +38°C° 0 mm 3 mps 754 mmHg 16%
    16:00 +37°C° 0 mm 2 mps 754 mmHg 17%
    17:00 +36°C° 0 mm 2 mps 753 mmHg 19%
    18:00 +35°C° 0 mm 2 mps 753 mmHg 21%
    19:00 +33°C° 0 mm 3 mps 753 mmHg 23%
    20:00 +30°C° 0 mm 3 mps 753 mmHg 26%
    21:00 +29°C° 0 mm 3 mps 753 mmHg 29%
    22:00 +28°C° 0 mm 3 mps 753 mmHg 28%
    23:00 +28°C° 0 mm 4 mps 752 mmHg 28%

    Tomorrow, 13 December, Wednesday

    Time Temperature Precipitation Wind Pressure Humidity
    00:00 +28°C° 0 mm 4 mps 752 mmHg 28%
    01:00 +28°C° 0 mm 4 mps 751 mmHg 26%
    02:00 +28°C° 0 mm 4 mps 751 mmHg 25%
    03:00 +28°C° 0 mm 4 mps 750 mmHg 23%
    04:00 +29°C° 0 mm 5 mps 750 mmHg 22%
    05:00 +29°C° 0 mm 5 mps 750 mmHg 21%
    06:00 +30°C° 0 mm 5 mps 750 mmHg 19%
    07:00 +34°C° 0 mm 6 mps 750 mmHg 16%
    08:00 +36°C° 0 mm 6 mps 750 mmHg 14%
    09:00 +40°C° 0 mm 7 mps 750 mmHg 11%
    10:00 +40°C° 0 mm 7 mps 749 mmHg 12%
    11:00 +40°C° 0 mm 7 mps 749 mmHg 12%
    12:00 +40°C° 0 mm 7 mps 749 mmHg 12%
    13:00 +39°C° 0 mm 7 mps 748 mmHg 16%
    14:00 +37°C° 0 mm 8 mps 748 mmHg 20%
    15:00 +35°C° 0 mm 8 mps 748 mmHg 24%
    16:00 +34°C° 0 mm 6 mps 748 mmHg 28%
    17:00 +32°C° 0 mm 5 mps 749 mmHg 33%
    18:00 +30°C° 0 mm 3 mps 749 mmHg 38%
    19:00 +29°C° 0 mm 4 mps 749 mmHg 42%
    20:00 +27°C° 0 mm 4 mps 750 mmHg 46%
    21:00 +26°C° 0 mm 5 mps 750 mmHg 50%
    22:00 +25°C° 0 mm 5 mps 750 mmHg 56%
    23:00 +23°C° 0 mm 4 mps 751 mmHg 62%

    Day after tomorrow, 14 December, Thursday

    Time Temperature Precipitation Wind Pressure Humidity
    00:00 +21°C° 0 mm 4 mps 751 mmHg 68%
    01:00 +21°C° 0 mm 4 mps 751 mmHg 72%
    02:00 +20°C° 0 mm 4 mps 751 mmHg 77%
    03:00 +19°C° 0 mm 5 mps 751 mmHg 81%
    04:00 +19°C° 0 mm 5 mps 752 mmHg 80%
    05:00 +19°C° 0 mm 5 mps 753 mmHg 79%
    06:00 +19°C° 0 mm 5 mps 754 mmHg 77%
    07:00 +20°C° 0 mm 5 mps 754 mmHg 70%
    08:00 +21°C° 0 mm 5 mps 754 mmHg 63%
    09:00 +22°C° 0 mm 4 mps 755 mmHg 56%
    10:00 +23°C° 0 mm 5 mps 755 mmHg 52%
    11:00 +25°C° 0 mm 5 mps 755 mmHg 47%
    12:00 +26°C° 0 mm 5 mps 755 mmHg 42%
    13:00 +25°C° 0 mm 5 mps 754 mmHg 43%
    14:00 +25°C° 0 mm 5 mps 754 mmHg 43%
    15:00 +25°C° 0 mm 5 mps 754 mmHg 44%
    16:00 +23°C° 0 mm 5 mps 755 mmHg 48%
    17:00 +22°C° 0 mm 5 mps 755 mmHg 51%
    18:00 +21°C° 0 mm 5 mps 755 mmHg 55%
    19:00 +20°C° 0 mm 5 mps 755 mmHg 59%
    20:00 +19°C° 0 mm 5 mps 756 mmHg 64%
    21:00 +17°C° 0 mm 5 mps 756 mmHg 68%
    22:00 +17°C° 0 mm 4 mps 756 mmHg 70%
    23:00 +17°C° 0 mm 3 mps 756 mmHg 71%

    15 December, Friday

    Time Temperature Precipitation Wind Pressure Humidity
    00:00 +16°C° 0 mm 3 mps 756 mmHg 73%
    01:00 +16°C° 0 mm 3 mps 756 mmHg 75%
    02:00 +15°C° 0 mm 2 mps 755 mmHg 76%
    03:00 +15°C° 0 mm 2 mps 755 mmHg 77%
    04:00 +15°C° 0 mm 2 mps 756 mmHg 74%
    05:00 +16°C° 0 mm 1 mps 756 mmHg 71%
    06:00 +18°C° 0 mm 1 mps 756 mmHg 68%
    07:00 +19°C° 0 mm 1 mps 756 mmHg 60%
    08:00 +21°C° 0 mm 1 mps 756 mmHg 52%
    09:00 +23°C° 0 mm 2 mps 756 mmHg 44%
    10:00 +24°C° 0 mm 2 mps 756 mmHg 41%
    11:00 +25°C° 0 mm 3 mps 756 mmHg 38%
    12:00 +25°C° 0 mm 4 mps 755 mmHg 36%
    13:00 +26°C° 0 mm 4 mps 755 mmHg 35%
    14:00 +26°C° 0 mm 4 mps 755 mmHg 34%
    15:00 +26°C° 0 mm 5 mps 754 mmHg 33%
    16:00 +25°C° 0 mm 5 mps 755 mmHg 38%
    17:00 +23°C° 0 mm 5 mps 755 mmHg 43%
    18:00 +22°C° 0 mm 4 mps 755 mmHg 47%
    19:00 +21°C° 0 mm 4 mps 756 mmHg 54%
    20:00 +20°C° 0 mm 4 mps 756 mmHg 61%
    21:00 +18°C° 0 mm 3 mps 757 mmHg 68%
    22:00 +18°C° 0 mm 3 mps 757 mmHg 72%
    23:00 +17°C° 0 mm 2 mps 757 mmHg 76%

    16 December, Saturday

    Time Temperature Precipitation Wind Pressure Humidity
    00:00 +17°C° 0 mm 2 mps 757 mmHg 80%
    01:00 +17°C° 0 mm 2 mps 756 mmHg 82%
    02:00 +16°C° 0 mm 2 mps 756 mmHg 84%
    03:00 +16°C° 0 mm 2 mps 756 mmHg 85%
    04:00 +16°C° 0 mm 2 mps 757 mmHg 83%
    05:00 +17°C° 0 mm 2 mps 757 mmHg 80%
    06:00 +17°C° 0 mm 2 mps 758 mmHg 77%
    07:00 +19°C° 0 mm 2 mps 758 mmHg 67%
    08:00 +21°C° 0 mm 2 mps 758 mmHg 58%
    09:00 +24°C° 0 mm 1 mps 758 mmHg 48%
    10:00 +25°C° 0 mm 2 mps 758 mmHg 44%
    11:00 +27°C° 0 mm 2 mps 757 mmHg 40%
    12:00 +28°C° 0 mm 3 mps 757 mmHg 36%
    13:00 +29°C° 0 mm 3 mps 756 mmHg 35%
    14:00 +29°C° 0 mm 3 mps 756 mmHg 35%
    15:00 +29°C° 0 mm 4 mps 755 mmHg 35%
    16:00 +28°C° 0 mm 4 mps 755 mmHg 39%
    17:00 +27°C° 0 mm 5 mps 755 mmHg 43%
    18:00 +26°C° 0 mm 5 mps 755 mmHg 46%
    19:00 +23°C° 0 mm 5 mps 756 mmHg 52%
    20:00 +22°C° 0 mm 5 mps 756 mmHg 58%
    21:00 +20°C° 0 mm 5 mps 757 mmHg 64%
    22:00 +20°C° 0 mm 4 mps 756 mmHg 65%
    23:00 +20°C° 0 mm 4 mps 755 mmHg 66%

    17 December, Sunday

    Time Temperature Precipitation Wind Pressure Humidity
    00:00 +19°C° 0 mm 4 mps 755 mmHg 67%
    01:00 +19°C° 0 mm 4 mps 754 mmHg 67%
    02:00 +19°C° 0 mm 4 mps 754 mmHg 67%
    03:00 +19°C° 0 mm 3 mps 753 mmHg 67%
    04:00 +20°C° 0 mm 3 mps 753 mmHg 62%
    05:00 +21°C° 0 mm 4 mps 754 mmHg 58%
    06:00 +22°C° 0 mm 4 mps 754 mmHg 53%
    07:00 +26°C° 0 mm 4 mps 754 mmHg 44%
    08:00 +29°C° 0 mm 5 mps 754 mmHg 35%
    09:00 +33°C° 0 mm 6 mps 754 mmHg 26%
    10:00 +35°C° 0 mm 6 mps 753 mmHg 23%
    11:00 +37°C° 0 mm 5 mps 752 mmHg 20%
    12:00 +40°C° 0 mm 5 mps 751 mmHg 16%
    13:00 +40°C° 0 mm 4 mps 751 mmHg 16%
    14:00 +40°C° 0 mm 3 mps 751 mmHg 15%
    15:00 +40°C° 0 mm 3 mps 750 mmHg 14%
    16:00 +39°C° 0 mm 3 mps 750 mmHg 16%
    17:00 +38°C° 0 mm 3 mps 750 mmHg 17%
    18:00 +36°C° 0 mm 3 mps 750 mmHg 19%
    19:00 +35°C° 0 mm 4 mps 750 mmHg 21%
    20:00 +34°C° 0 mm 4 mps 751 mmHg 23%
    21:00 +32°C° 0 mm 4 mps 751 mmHg 25%
    22:00 +32°C° 0 mm 4 mps 750 mmHg 24%
    23:00 +32°C° 0 mm 4 mps 750 mmHg 23%
    Show more